Temperature
22 21 21 21 20 20 20 20 19 19 19 19 18 18 18 18 18 18 18 18 18 18 18 18 18 18 18 18 18 18 17 17 17 17 17 17 17 17 17 17 16 16 16
22 22 21 21 21 21 20 20 20 19 19 19 19 19 19 19 18 18 18 18 18 18 18 18 18 18 18 18 18 18 18 17 17 17 17 16 16 17 17 16 16 16 16
22 22 22 21 21 21 21 20 20 20 19 19 19 19 19 19 19 18 18 18 18 18 18 18 18 18 18 18 18 18 18 17 17 17 17 16 16 16 16 16 16 16 16
22 22 22 22 22 21 21 20 20 20 20 19 19 19 19 19 19 19 18 18 18 18 18 18 18 18 18 18 18 18 17 17 17 17 17 17 17 16 16 16 16 16 16
23 23 23 22 22 22 21 21 20 20 20 19 19 19 19 19 19 19 19 18 18 18 18 18 18 18 18 18 18 17 17 17 17 17 17 17 17 16 16 15 15 15 15
23 23 23 23 22 22 21 21 21 20 20 20 19 19 19 19 19 19 19 18 18 18 18 18 18 18 18 18 18 17 17 17 17 17 17 17 16 16 16 16 15 15 15
23 23 23 23 23 22 22 21 21 21 20 20 20 19 19 19 19 19 18 18 18 18 18 18 18 18 18 18 17 17 17 17 17 17 17 17 16 16 16 16 15 15 14
24 24 23 23 23 23 22 22 21 21 20 20 20 20 19 19 19 18 18 18 18 18 18 18 18 18 17 17 17 17 17 17 17 17 17 16 16 16 16 16 15 15 14
24 24 24 23 23 23 22 22 22 21 21 20 20 20 19 19 19 18 18 18 18 18 18 18 17 17 17 17 17 17 17 17 17 17 16 16 16 16 16 16 16 15 14
24 24 24 23 23 23 22 22 22 21 21 20 20 20 19 19 19 18 18 18 18 17 17 17 17 17 17 17 17 17 16 16 16 16 16 16 16 16 16 15 15 15 15
24 24 24 23 23 23 22 22 21 21 21 20 20 19 19 19 18 18 18 18 17 17 17 17 17 17 17 16 16 16 16 16 16 16 16 16 16 15 15 15 15 15 14
24 24 24 23 23 22 22 22 21 21 20 20 20 19 19 19 18 18 18 17 17 17 17 17 16 16 16 16 16 16 16 16 16 16 16 15 15 15 15 15 15 14 14
24 24 23 23 23 22 22 21 21 21 20 20 19 19 19 18 18 18 17 17 17 17 16 16 16 16 16 16 16 16 16 16 15 15 15 15 15 15 15 15 14 14 14
24 24 23 23 23 22 22 21 21 21 20 20 19 19 19 18 18 17 17 17 17 16 16 16 16 16 16 15 15 15 15 15 15 15 15 15 15 14 14 14 14 13 13
23 23 23 23 23 22 22 21 21 21 20 20 19 19 19 18 18 17 17 17 17 16 16 16 16 16 15 15 15 15 15 15 15 14 14 14 14 14 14 14 13 13 13
23 23 23 23 23 22 22 21 21 20 20 20 19 19 19 18 18 17 17 17 16 16 16 16 15 15 15 15 15 15 15 15 14 14 14 14 13 13 13 13 13 13 13
23 23 23 23 23 22 22 21 21 20 20 20 19 19 18 18 18 17 17 16 16 16 16 15 15 15 15 14 14 14 14 14 14 14 14 13 13 13 13 13 12 12 12
23 23 23 23 22 22 22 21 21 20 20 19 19 18 18 18 17 17 16 16 16 16 16 15 15 15 14 14 14 14 14 14 14 13 13 13 13 13 13 12 12 12 12
23 23 23 23 22 22 21 21 20 20 19 19 19 18 18 18 17 17 16 16 16 15 15 15 15 15 14 14 14 14 14 13 13 13 13 13 12 12 12 12 12 12 11
23 23 22 22 22 21 21 21 20 20 19 19 19 18 18 17 17 17 16 16 15 15 15 15 14 14 14 14 13 13 13 13 13 13 12 12 12 12 12 12 12 11 11
23 22 22 22 22 21 20 20 20 20 20 19 18 18 17 17 17 16 16 15 15 15 14 14 14 14 14 13 13 13 13 13 13 12 12 12 12 12 12 11 11 11 11
22 22 22 22 21 21 20 20 20 20 19 19 18 18 17 17 16 16 15 15 15 14 14 14 14 14 14 13 13 13 13 12 12 12 12 12 12 11 11 11 11 11 11
22 21 21 21 21 21 20 20 20 19 19 18 18 17 17 16 16 16 15 15 15 14 14 14 14 14 13 13 13 13 12 12 12 12 12 11 11 11 11 11 11 11 10
21 21 20 20 21 20 20 19 19 19 18 18 17 17 16 16 15 15 15 15 14 14 14 14 14 14 13 13 13 12 12 12 12 12 11 11 11 11 11 11 10 10 10
20 20 20 20 20 20 19 19 19 18 18 17 17 16 16 15 15 15 15 14 14 14 14 14 14 14 13 13 13 13 12 12 12 12 11 11 11 11 11 10 10 10 10
20 19 19 19 19 19 19 18 18 18 18 17 17 16 16 15 15 15 14 14 14 14 14 13 13 13 13 13 12 12 12 12 11 11 11 11 11 11 10 10 10 10 9
Wind_Speed
7 7 7 7 7 6 5 5 5 4 3 2 1 1 1 1 1 2 3 3 4 4 4 3 2 2 2 2 2 2 2 1 2 2 1 2 2 1 0 0 1 1 1
6 7 8 7 8 8 7 6 5 5 4 3 2 2 2 1 1 1 1 3 4 4 4 4 3 3 2 2 2 2 2 1 2 2 1 1 2 2 1 1 1 0 1
11 9 9 9 8 9 8 8 6 6 5 4 2 1 2 1 1 1 1 2 3 3 3 3 3 3 3 3 3 3 3 2 2 2 3 2 2 0 2 2 2 1 1
10 9 10 10 10 10 8 7 6 5 5 5 4 4 3 2 2 2 2 2 2 2 2 2 2 2 2 3 3 3 3 3 3 2 2 2 3 2 0 1 2 2 2
12 12 12 11 10 9 8 7 6 5 5 5 5 5 3 3 1 1 1 2 2 2 2 2 2 2 2 3 3 3 3 3 3 3 2 2 1 2 2 1 0 1 2
12 11 10 9 8 8 7 7 6 5 5 5 5 5 5 4 2 2 2 2 2 2 2 2 2 2 2 2 2 2 3 3 2 2 2 2 2 3 3 3 2 1 1
11 11 11 11 10 10 9 8 7 6 5 6 5 5 5 4 4 3 3 2 2 2 2 2 1 1 1 2 1 1 2 2 2 2 2 2 3 2 3 3 2 1 0
10 11 12 12 11 11 9 9 8 7 6 6 5 4 4 3 3 3 2 2 2 2 1 1 1 1 1 0 1 1 1 1 2 2 2 2 2 3 3 3 4 2 0
10 11 10 10 10 10 10 9 8 7 6 6 5 4 3 3 3 2 2 1 1 0 1 1 1 1 1 1 1 1 0 1 1 1 1 1 2 2 3 3 4 4 3
8 9 9 9 9 8 7 7 7 6 5 5 4 4 3 3 2 2 2 1 1 1 2 2 1 1 1 2 2 1 1 1 1 0 1 1 1 1 2 2 2 2 4
8 8 8 8 8 7 7 7 6 5 4 4 4 3 3 3 2 2 2 2 1 2 2 2 2 2 2 1 2 1 1 1 1 1 1 0 1 2 2 2 3 2 3
6 6 7 7 8 8 7 7 7 5 4 5 4 3 3 3 3 2 2 2 2 2 2 2 3 2 2 2 2 1 1 1 0 0 1 1 1 2 2 3 3 3 2
5 5 6 7 8 8 7 7 7 6 5 5 5 4 4 4 3 2 2 3 3 3 3 3 3 2 2 2 2 1 1 1 0 0 1 1 2 2 2 3 3 3 3
6 6 6 6 7 7 8 7 6 6 6 6 6 5 4 4 3 3 4 4 4 4 3 3 3 2 2 2 2 2 2 2 2 2 2 2 2 2 2 3 3 4 4
6 7 7 6 6 7 7 7 6 6 7 7 6 5 4 4 4 4 4 4 4 4 3 3 3 3 2 2 2 2 3 3 3 3 3 3 3 3 3 3 3 4 4
7 7 7 7 8 8 8 8 7 7 8 7 6 5 5 5 4 4 4 4 4 3 4 3 3 3 3 3 3 4 3 3 3 3 3 3 4 5 5 5 5 5 5
7 7 8 8 8 8 8 9 8 8 8 7 6 6 6 5 5 5 4 4 3 3 4 3 3 3 3 4 5 5 4 4 3 3 3 3 3 5 5 7 8 6 5
7 6 6 6 6 6 7 7 8 8 8 7 6 6 6 6 5 5 4 3 3 3 2 2 2 3 3 4 5 6 5 5 4 3 3 3 3 4 5 6 6 5 5
6 6 6 6 6 7 9 9 9 8 8 7 7 6 6 6 6 6 5 3 3 3 2 2 3 3 2 4 5 6 4 4 4 4 4 4 4 5 7 7 6 5 4
5 6 6 6 7 6 8 10 10 9 8 8 7 6 6 7 7 6 5 3 3 3 3 3 2 2 2 3 4 5 4 4 3 3 4 4 5 6 7 6 5 5 3
6 6 6 6 6 7 8 9 9 9 8 7 7 6 6 7 6 6 4 5 4 4 3 3 2 2 2 3 4 5 3 3 2 2 2 2 5 6 6 5 4 4 4
5 6 6 5 5 7 9 8 8 8 7 8 7 7 6 6 6 6 5 5 5 5 4 3 2 2 2 2 2 3 3 3 3 2 1 1 4 5 5 4 4 6 6
5 5 5 4 4 6 8 9 7 7 8 8 8 7 6 5 6 7 7 5 5 4 3 3 2 1 1 1 2 2 3 3 2 1 2 3 5 6 5 5 5 5 3
5 5 5 4 4 4 5 6 7 8 9 9 8 7 7 6 5 4 5 5 5 5 4 3 3 2 1 1 1 1 2 2 3 3 4 6 7 6 5 4 3 3 2
5 6 7 6 5 5 5 5 8 9 9 9 8 7 7 7 6 4 4 5 4 5 6 5 5 4 3 4 4 3 2 2 3 3 3 3 3 3 3 2 2 2 2
5 5 6 6 5 5 5 6 8 10 10 9 8 7 6 6 6 5 3 2 2 4 5 5 5 4 4 4 5 4 4 4 6 5 3 2 2 2 2 1 1 1 1
Wind_Direction
198 182 174 170 164 172 177 181 181 179 157 142 152 164 221 240 240 237 242 234 225 215 202 208 214 197 194 204 184 161 153 155 133 103 60 26 42 71 103 137 128 157 205
191 184 178 177 178 185 189 190 193 189 184 176 169 176 181 205 211 249 267 246 233 222 212 204 210 205 200 207 188 166 164 183 163 151 141 338 5 31 23 90 131 156 74
197 190 185 186 187 192 194 196 197 195 193 175 138 105 77 38 30 324 290 274 250 234 223 215 210 203 197 214 217 192 185 199 203 178 165 174 217 337 18 38 59 66 68
199 192 188 189 192 197 193 194 193 190 190 173 167 168 175 200 224 227 247 283 275 262 243 228 219 215 205 216 228 210 205 190 206 206 211 202 167 170 153 31 45 58 53
198 196 195 195 193 189 186 189 185 189 189 183 182 181 192 202 207 213 241 276 287 276 263 235 213 218 220 224 226 214 202 201 205 198 187 194 192 183 189 213 107 58 50
198 196 195 188 186 184 183 179 183 197 191 186 188 189 193 195 203 222 236 260 276 283 268 235 213 223 225 229 227 216 203 205 202 194 186 185 183 189 188 206 207 183 34
195 191 186 187 187 186 185 181 187 199 195 187 193 200 196 195 209 221 225 241 268 280 270 248 228 229 229 225 208 193 200 194 188 196 205 208 212 179 169 172 187 180 353
195 193 190 188 190 187 184 184 190 197 195 192 195 196 193 195 211 216 217 225 239 251 251 219 225 248 235 207 140 154 192 172 188 205 203 204 208 182 178 173 164 160 133
192 189 184 184 185 184 187 188 187 191 193 191 184 185 190 196 209 216 209 226 239 227 88 95 92 57 64 73 84 75 47 111 178 209 206 207 203 184 189 173 168 168 184
186 181 179 181 181 179 175 171 175 180 185 172 176 185 185 191 195 173 167 142 104 68 75 70 76 72 73 82 85 71 42 68 5 320 136 187 184 168 160 162 159 160 167
185 182 178 174 170 164 164 167 169 169 169 167 166 165 163 154 138 139 140 138 109 90 84 79 74 67 68 74 88 80 68 76 37 32 76 43 141 143 143 139 138 143 149
175 169 162 157 159 163 165 167 170 168 173 162 156 157 140 128 130 131 125 115 106 92 94 88 78 65 57 58 81 72 54 84 66 357 109 98 106 115 130 137 140 147 153
151 150 152 159 164 165 167 169 173 170 167 156 154 150 141 136 135 126 107 104 102 91 84 82 78 68 61 53 56 71 64 70 53 112 122 117 111 103 112 130 137 140 139
154 151 158 165 165 164 167 168 167 163 156 147 147 149 153 148 138 123 112 105 102 98 91 84 78 74 67 57 58 69 68 64 55 59 79 95 121 136 130 133 140 134 128
166 167 166 168 166 165 166 167 163 157 152 146 149 155 146 131 121 115 111 106 104 103 98 89 73 64 65 56 66 81 84 79 69 58 60 75 94 102 118 133 141 139 135
182 180 173 169 173 174 172 169 164 157 151 150 153 147 137 132 129 125 118 111 105 100 91 82 76 64 58 62 87 100 92 86 83 74 63 70 70 83 90 107 120 134 141
186 182 184 183 181 176 170 171 164 152 150 150 149 147 145 143 144 139 125 120 116 106 96 87 84 74 60 72 82 92 97 88 79 75 70 71 68 83 93 90 86 85 94
187 184 180 179 172 162 158 153 149 150 150 150 152 154 154 151 146 139 135 127 115 108 101 94 96 87 70 79 88 94 85 77 68 68 80 90 81 91 104 100 88 79 73
177 175 174 169 161 159 155 146 147 151 152 159 164 164 160 158 156 156 152 144 132 115 101 95 96 91 70 80 98 98 90 79 62 55 64 89 91 91 103 104 100 86 68
160 159 152 146 151 156 152 149 155 158 169 174 173 165 159 158 162 161 153 143 135 127 120 98 88 93 82 77 99 101 99 87 70 56 54 71 93 99 105 111 113 105 87
159 153 148 151 159 153 153 160 162 174 177 166 157 154 158 159 156 146 141 138 130 123 116 106 82 73 68 73 84 97 105 116 106 87 67 57 91 98 100 105 113 125 120
148 152 151 157 155 152 156 169 180 175 160 153 152 154 155 156 151 144 140 138 136 133 128 119 94 57 57 79 92 96 100 119 124 135 133 97 104 101 104 108 112 114 110
150 146 149 151 150 157 166 176 181 158 151 151 156 156 152 149 151 152 150 144 145 148 149 148 147 132 53 55 78 96 102 115 111 105 137 124 116 103 96 98 110 115 114
154 144 144 156 168 169 173 174 158 152 153 158 160 158 156 153 148 148 155 158 163 165 166 171 179 182 169 162 138 119 114 113 93 85 91 92 96 93 89 85 90 98 115
161 160 165 177 186 177 174 165 159 155 157 161 163 162 163 160 155 155 166 176 184 187 181 188 186 183 200 220 192 163 161 158 146 115 92 83 83 86 82 77 77 84 100
162 162 167 171 177 171 168 166 165 163 161 165 169 171 169 166 164 160 145 110 165 180 185 183 181 198 203 187 179 181 172 152 140 123 120 131 135 144 148 140 122 98 108
Height
1543 1546 1548 1550 1552 1554 1556 1557 1558 1559 1561 1562 1563 1564 1565 1566 1566 1567 1567 1568 1568 1569 1569 1569 1569 1569 1568 1568 1568 1568 1568 1568 1568 1568 1568 1568 1568 1568 1568 1568 1568 1568 1568
1542 1544 1546 1549 1551 1553 1554 1556 1558 1559 1560 1561 1562 1563 1564 1565 1565 1566 1566 1567 1567 1567 1567 1567 1567 1567 1567 1567 1567 1566 1566 1566 1567 1567 1567 1567 1568 1566 1566 1566 1566 1566 1566
1539 1541 1544 1547 1549 1551 1553 1554 1556 1558 1559 1560 1561 1562 1563 1564 1564 1565 1565 1565 1566 1566 1566 1566 1566 1566 1565 1565 1565 1565 1564 1564 1565 1565 1566 1565 1565 1565 1565 1565 1565 1565 1565
1536 1539 1541 1544 1546 1549 1551 1553 1555 1557 1558 1559 1560 1560 1561 1562 1563 1563 1564 1564 1564 1564 1564 1564 1563 1563 1563 1563 1563 1563 1563 1563 1562 1563 1563 1564 1563 1563 1563 1564 1563 1563 1563
1533 1535 1538 1541 1544 1547 1549 1551 1553 1555 1556 1557 1558 1559 1559 1560 1561 1562 1562 1562 1562 1562 1562 1561 1561 1561 1561 1561 1561 1561 1561 1561 1561 1561 1561 1561 1561 1561 1561 1561 1562 1562 1562
1529 1532 1536 1539 1542 1545 1547 1549 1551 1553 1554 1555 1556 1557 1558 1558 1559 1559 1560 1559 1559 1560 1560 1559 1559 1559 1559 1559 1559 1558 1558 1558 1558 1558 1558 1558 1558 1558 1558 1558 1558 1559 1560
1525 1528 1532 1535 1539 1542 1544 1547 1549 1550 1552 1553 1554 1555 1556 1557 1557 1558 1558 1557 1557 1557 1557 1557 1557 1557 1557 1557 1557 1556 1556 1556 1556 1556 1556 1556 1556 1556 1556 1555 1555 1556 1557
1522 1525 1528 1532 1535 1538 1541 1544 1546 1548 1550 1551 1552 1553 1554 1555 1555 1556 1556 1556 1555 1555 1555 1555 1555 1555 1555 1555 1555 1554 1554 1554 1554 1554 1553 1553 1553 1553 1553 1553 1553 1553 1555
1519 1522 1526 1530 1533 1536 1539 1542 1544 1546 1547 1549 1550 1551 1552 1553 1554 1554 1554 1554 1554 1554 1553 1553 1553 1553 1553 1553 1553 1552 1552 1552 1552 1551 1551 1551 1551 1551 1551 1551 1551 1552 1552
1517 1520 1524 1527 1530 1534 1537 1540 1542 1544 1545 1547 1548 1549 1550 1551 1552 1552 1552 1552 1552 1552 1552 1551 1551 1551 1551 1550 1550 1550 1550 1550 1550 1549 1549 1549 1549 1549 1549 1549 1549 1550 1550
1515 1518 1522 1525 1529 1532 1535 1537 1540 1542 1544 1545 1546 1548 1548 1549 1550 1550 1551 1551 1551 1550 1550 1550 1550 1549 1549 1549 1549 1548 1548 1548 1548 1547 1547 1547 1547 1547 1547 1547 1547 1548 1548
1514 1517 1520 1523 1527 1530 1533 1535 1537 1539 1541 1543 1544 1546 1547 1548 1548 1549 1549 1549 1549 1549 1549 1549 1548 1548 1548 1548 1548 1547 1547 1546 1546 1545 1545 1545 1545 1544 1545 1545 1546 1546 1547
1513 1516 1519 1522 1525 1528 1531 1533 1536 1538 1540 1542 1543 1545 1546 1546 1547 1547 1548 1548 1548 1548 1548 1548 1547 1547 1547 1547 1547 1546 1546 1545 1544 1544 1543 1543 1543 1543 1543 1544 1544 1545 1545
1512 1515 1518 1521 1524 1526 1529 1532 1534 1536 1539 1540 1542 1543 1544 1545 1546 1547 1547 1547 1547 1547 1547 1547 1547 1546 1546 1546 1546 1545 1544 1544 1543 1543 1543 1542 1542 1542 1542 1543 1543 1543 1544
1512 1514 1516 1520 1523 1525 1528 1530 1532 1535 1537 1539 1541 1542 1543 1544 1545 1546 1546 1546 1546 1546 1546 1546 1546 1546 1545 1545 1545 1544 1544 1543 1543 1542 1542 1542 1542 1542 1542 1542 1542 1542 1543
1510 1513 1515 1518 1521 1523 1526 1528 1531 1534 1536 1538 1539 1541 1542 1543 1544 1545 1545 1546 1546 1546 1546 1546 1545 1545 1545 1545 1545 1544 1543 1543 1542 1542 1542 1542 1542 1541 1542 1542 1542 1543 1543
1509 1511 1514 1517 1519 1522 1524 1527 1529 1532 1534 1536 1538 1540 1541 1542 1543 1544 1545 1545 1545 1545 1545 1545 1545 1545 1545 1544 1544 1544 1543 1543 1542 1542 1542 1542 1541 1541 1541 1542 1542 1542 1543
1507 1510 1513 1516 1518 1521 1523 1526 1528 1531 1533 1535 1537 1539 1540 1541 1543 1543 1544 1545 1545 1545 1545 1545 1545 1544 1544 1544 1544 1544 1543 1542 1542 1542 1542 1542 1542 1542 1542 1542 1542 1542 1542
1507 1509 1512 1514 1516 1519 1521 1524 1527 1529 1531 1533 1535 1537 1538 1540 1541 1542 1543 1544 1545 1545 1545 1545 1545 1544 1544 1544 1544 1544 1543 1543 1542 1542 1542 1542 1542 1542 1542 1542 1542 1542 1542
1506 1508 1511 1513 1515 1517 1520 1522 1524 1527 1529 1532 1534 1536 1537 1538 1540 1541 1542 1543 1544 1544 1544 1545 1545 1544 1544 1544 1544 1544 1544 1543 1543 1543 1543 1543 1543 1543 1543 1543 1543 1542 1543
1504 1507 1509 1511 1513 1515 1518 1520 1522 1524 1527 1530 1532 1534 1536 1537 1538 1539 1541 1542 1543 1543 1544 1544 1544 1544 1544 1544 1544 1544 1544 1544 1544 1543 1543 1543 1544 1544 1543 1543 1544 1544 1544
1502 1505 1507 1509 1512 1514 1516 1519 1520 1522 1526 1528 1530 1532 1534 1535 1536 1538 1539 1540 1541 1542 1543 1543 1543 1544 1544 1544 1544 1545 1545 1545 1544 1544 1543 1543 1544 1544 1544 1544 1544 1544 1544
1500 1502 1505 1508 1510 1512 1515 1516 1519 1521 1523 1526 1528 1530 1531 1533 1534 1536 1537 1538 1539 1540 1541 1542 1542 1543 1544 1544 1544 1544 1544 1544 1544 1543 1542 1543 1544 1544 1544 1544 1545 1545 1544
1498 1500 1503 1505 1508 1510 1513 1515 1517 1520 1522 1524 1526 1528 1529 1531 1532 1534 1535 1536 1537 1538 1539 1540 1541 1542 1542 1543 1543 1543 1544 1544 1544 1543 1543 1543 1544 1544 1544 1544 1545 1544 1544
1496 1498 1500 1503 1505 1508 1510 1513 1515 1518 1520 1522 1524 1526 1527 1529 1530 1532 1533 1534 1536 1537 1538 1539 1540 1541 1541 1542 1542 1542 1543 1543 1544 1543 1543 1543 1543 1543 1544 1544 1544 1544 1544
1494 1496 1498 1501 1503 1506 1508 1511 1513 1516 1517 1519 1521 1523 1525 1526 1528 1530 1531 1533 1534 1536 1537 1538 1539 1539 1540 1541 1541 1541 1542 1543 1543 1543 1543 1543 1543 1543 1543 1543 1544 1543 1543